Location: Marcé
(47.5801°N, 0.3280°W)
Time: 06:38:53
(UTC+01:00)

Envisat - Pass Details

Date: 24 October 2021
Orbit: 764 x 766 km, 98.2° (Epoch: 04 December)

Event Time Altitude Azimuth Distance (km) Brightness Sun altitude
Rises 06:17:30 0° 23° (NNE) 3,244 6.7 -23.5°
Reaches altitude 10° 06:20:08 10° 35° (NE) 2,312 6.0 -23.1°
Maximum altitude 06:24:29 28° 94° (E) 1,422 5.1 -22.3°
Drops below altitude 10° 06:28:47 10° 152° (SSE) 2,296 5.7 -21.6°
Sets 06:31:23 0° 164° (SSE) 3,217 6.4 -21.2°
